Theta_e
276 275 275 274 276 277 278 279 282 282 282 280 280 281 283 283 282 282 282 280 282 287 287 287 286 286 286 286 286 286 286 286 286 285 285 285 285 285 284 284 283 282 282 282 283 283 283 283 282 282 282 281 281 280 280 280 280 280 280 279 279 279 278 278 278 278 278 277 277 276 276 276 276 275 275 275 275 274 274 274 274 274 273 273 273 273 273
277 275 274 274 276 276 277 279 280 281 281 282 283 284 282 283 284 283 281 281 282 286 288 288 288 288 288 287 288 287 286 285 285 285 284 285 285 285 284 284 283 283 283 282 283 283 283 282 282 282 281 281 280 280 279 280 279 280 280 279 279 278 278 278 278 278 278 277 276 276 275 275 275 275 275 274 274 274 273 273 273 273 273 273 273 273 272
278 277 274 273 275 275 276 279 279 279 279 279 280 281 279 278 280 282 280 281 283 288 287 287 285 288 288 287 285 285 286 285 285 285 284 285 285 285 285 285 284 284 283 283 283 283 282 282 282 282 282 281 281 280 280 279 279 279 280 279 279 278 278 279 279 278 277 277 276 275 275 275 275 275 274 274 274 273 273 273 272 272 272 272 272 272 272
278 276 275 275 275 273 274 275 278 278 277 278 281 280 283 282 283 282 281 282 285 286 282 284 285 285 285 285 285 285 285 286 285 284 285 285 285 285 285 285 284 284 283 283 282 282 283 283 283 282 282 281 281 280 280 279 279 279 279 279 278 278 279 279 278 278 277 277 276 275 275 275 275 275 274 274 273 273 273 272 272 272 272 272 272 272 272
275 274 273 273 274 277 276 280 281 280 280 283 282 282 282 284 286 283 282 285 288 285 284 284 283 284 285 286 285 286 286 286 286 285 285 286 286 286 285 284 284 284 283 283 283 283 283 283 283 283 283 281 280 281 280 280 279 279 278 278 278 278 278 278 278 278 278 277 276 275 275 275 275 274 274 273 273 273 272 272 272 272 272 271 271 272 271
274 272 269 272 274 272 276 280 272 277 280 281 281 283 283 284 284 287 289 289 283 283 283 286 285 283 285 286 288 289 287 286 286 286 286 286 287 287 286 285 285 285 285 284 284 283 283 284 284 284 283 282 282 282 281 280 279 278 278 278 278 278 278 278 278 278 278 277 276 275 275 275 274 274 273 273 273 273 272 272 272 271 271 271 271 271 271
274 271 271 273 267 273 282 276 279 276 277 279 281 284 286 286 285 286 285 285 284 285 286 288 288 287 287 288 288 288 289 289 287 286 286 287 287 287 286 286 285 285 285 284 284 283 283 283 284 283 282 283 282 281 281 279 279 278 278 278 278 278 278 278 278 278 277 276 276 275 275 274 274 273 273 273 272 272 272 272 271 271 271 271 271 270 270
270 271 271 264 272 279 279 275 277 278 277 279 279 280 283 284 285 285 285 287 289 287 286 286 284 284 285 285 286 288 289 289 289 288 287 288 288 287 287 286 286 285 285 284 284 283 284 284 283 283 282 283 282 281 281 280 279 278 278 278 278 278 278 278 278 278 277 276 276 275 275 274 273 273 273 273 272 272 272 272 271 271 271 271 270 270 270
271 270 269 275 276 278 278 276 277 278 280 279 280 279 283 285 286 285 285 287 288 287 284 284 283 283 283 283 285 287 287 288 289 289 289 290 289 289 289 288 287 287 286 286 285 285 284 283 283 282 283 282 282 281 280 280 279 278 278 277 277 277 277 277 277 277 277 276 276 275 274 274 273 273 273 272 272 272 271 271 271 270 270 270 270 269 269
271 273 272 272 274 269 278 281 278 281 280 281 280 279 280 285 284 286 286 286 288 287 283 282 282 283 285 285 289 289 287 288 288 289 290 290 290 290 290 289 288 287 287 286 286 285 283 283 283 283 283 282 281 280 279 279 278 278 277 277 278 277 277 278 277 277 277 276 276 275 274 273 273 273 273 273 272 272 271 271 270 270 270 269 269 269 268
270 269 269 267 267 274 282 280 279 280 280 281 279 279 279 286 283 283 284 285 288 288 284 282 283 285 284 286 289 288 288 287 288 288 288 289 290 290 290 289 288 287 286 286 285 284 284 282 282 283 282 282 281 280 279 279 278 278 277 278 278 277 277 278 278 277 277 276 276 275 274 274 274 273 273 272 272 271 271 271 270 270 269 269 269 269 268
268 269 267 271 269 275 280 279 279 280 281 279 279 275 278 285 284 282 283 284 287 287 285 283 284 286 284 287 288 286 286 288 288 288 288 288 288 289 290 290 289 288 287 285 284 283 283 283 283 282 282 281 280 280 279 279 278 278 278 278 279 279 278 278 278 277 277 276 276 275 275 274 274 273 273 272 271 270 270 270 269 269 268 268 268 268 268
271 271 272 270 275 280 280 279 279 280 279 280 276 274 283 284 283 281 284 285 287 286 283 284 284 287 290 286 285 282 283 284 286 288 289 289 289 288 288 288 288 286 285 285 284 283 284 283 282 282 281 280 280 280 279 278 278 278 279 279 279 278 278 278 277 277 277 276 275 275 275 274 274 273 272 271 271 270 269 269 268 268 267 267 267 267 267
271 271 271 274 276 282 280 278 281 281 279 274 276 285 281 282 282 280 282 285 286 286 283 285 287 290 284 283 282 282 283 285 286 286 287 287 287 288 288 287 287 286 285 284 284 284 284 283 282 282 281 280 280 280 279 278 279 280 279 279 279 278 278 277 277 277 276 276 276 275 275 274 272 271 271 271 270 269 269 268 266 266 266 265 266 266 266
267 267 269 269 271 279 279 280 280 279 279 284 285 284 281 280 281 281 281 283 285 286 285 285 286 288 285 284 284 283 282 282 283 284 285 285 286 286 286 286 286 285 284 283 283 283 283 283 282 281 281 280 280 279 279 279 280 280 280 279 279 278 277 277 276 276 276 275 274 274 273 272 272 271 270 268 268 267 267 266 265 264 264 264 264 265 265
275 269 268 273 282 283 281 284 283 281 284 285 283 283 284 281 281 282 282 282 283 285 286 285 284 284 285 285 283 282 282 281 282 282 284 285 286 286 286 286 286 285 284 283 283 283 283 282 282 281 280 280 280 279 279 281 280 280 279 279 279 277 277 276 276 275 275 274 274 273 272 271 271 269 268 267 266 266 266 265 265 264 265 264 264 264 264
277 275 279 283 279 281 283 284 284 283 284 282 282 283 284 284 284 281 283 284 283 284 285 285 285 284 284 285 286 285 285 283 282 282 283 284 285 285 285 285 285 284 284 283 283 282 282 282 282 281 281 280 279 279 280 281 280 279 279 278 277 276 276 276 275 275 274 273 273 272 271 270 269 268 267 266 265 265 265 265 265 265 265 264 263 263 263
279 280 281 283 281 278 280 284 284 283 283 282 281 282 283 283 284 283 284 284 283 283 283 283 283 283 285 284 284 284 284 284 283 282 283 283 284 285 285 285 284 284 284 283 282 282 281 281 281 281 280 281 279 280 281 280 280 279 278 277 276 275 275 275 275 274 272 272 271 270 270 270 269 269 267 265 265 265 264 264 265 264 264 263 263 262 262
278 279 283 281 282 282 281 282 284 285 284 284 282 282 282 284 283 282 283 283 282 282 281 281 283 283 284 283 284 284 283 283 283 282 282 282 283 284 283 284 283 283 283 282 282 281 280 281 281 280 280 280 281 282 281 280 280 279 277 276 275 275 275 274 273 272 271 270 270 268 268 269 269 268 267 266 265 264 264 264 263 263 262 262 261 261 261
278 281 283 281 278 279 280 282 282 282 283 283 284 284 283 284 282 282 283 282 281 281 281 282 282 283 284 283 283 283 283 283 283 282 281 282 282 283 284 284 283 283 282 282 281 281 280 280 280 280 280 280 281 281 281 280 279 278 276 275 274 274 274 273 272 271 270 267 267 268 267 267 266 266 266 265 265 265 264 264 263 262 262 261 261 261 262
279 281 282 283 283 283 283 282 281 282 283 284 283 282 282 282 283 282 282 282 282 282 282 282 282 282 283 283 283 283 284 283 283 282 282 282 282 283 282 282 281 281 281 281 281 281 281 281 280 279 279 280 280 280 280 279 278 276 275 273 274 274 273 272 271 270 270 268 268 268 266 266 266 266 265 265 265 265 265 265 265 264 263 263 262 263 263
276 278 283 284 281 283 287 285 285 285 284 283 283 284 283 283 282 282 282 282 281 282 283 283 282 282 282 283 283 283 283 283 283 283 282 281 281 281 282 282 281 280 281 281 281 281 281 281 280 279 279 279 280 280 279 278 277 275 274 274 273 273 272 271 270 269 269 268 268 267 266 265 264 264 264 265 266 265 263 263 264 266 266 263 263 263 263
280 284 286 286 286 286 288 289 286 285 285 283 282 282 282 283 283 283 283 282 282 281 280 282 282 282 282 283 283 282 282 283 283 283 283 282 280 280 281 280 280 279 280 280 280 280 281 280 279 278 278 279 279 279 278 277 276 275 274 273 273 272 271 270 269 268 268 268 267 267 266 265 264 263 262 264 267 268 266 264 264 266 267 267 268 268 265
285 287 287 285 285 284 287 287 285 284 283 284 283 284 284 284 284 284 283 283 282 283 282 281 281 282 282 283 283 282 282 283 283 282 282 282 282 281 280 279 279 279 279 279 279 279 281 280 279 278 278 278 278 278 277 276 275 275 274 273 272 272 270 270 268 268 268 267 266 265 265 265 264 263 263 262 263 266 267 267 267 267 268 268 269 269 269
283 287 287 285 285 286 286 287 285 284 283 283 284 285 284 284 283 283 283 282 283 283 283 282 281 281 281 282 282 282 282 282 283 282 281 280 281 280 280 279 278 278 279 279 280 280 280 280 279 278 277 278 278 277 276 275 275 274 274 273 273 271 270 269 267 267 267 266 265 265 264 264 264 264 264 263 262 262 263 265 265 266 267 268 268 267 266
286 286 286 284 282 283 284 285 285 284 279 279 282 283 284 283 284 283 282 282 283 283 282 283 283 282 280 280 281 281 281 281 282 281 280 279 279 278 278 278 279 279 280 279 279 280 280 279 278 278 277 277 277 276 275 275 274 274 274 273 273 272 270 269 267 267 267 266 265 265 265 264 264 264 264 264 264 263 261 260 260 262 264 265 264 263 263
285 285 284 283 283 284 286 284 284 288 286 281 282 284 285 286 282 282 283 283 282 282 282 282 282 282 281 280 280 281 280 281 280 280 279 279 279 279 280 280 280 279 278 279 278 278 277 278 277 277 276 277 277 276 275 274 274 274 274 274 274 269 266 267 268 267 267 267 266 265 265 264 263 263 263 263 263 262 261 260 260 259 259 260 260 260 259
285 285 284 281 281 283 285 286 287 287 287 286 283 282 283 284 281 280 280 280 280 280 280 280 280 279 279 279 279 279 279 278 278 279 279 279 280 280 280 280 279 278 278 277 278 278 277 277 277 276 276 277 276 275 274 273 273 273 273 273 273 271 268 267 268 268 267 267 266 266 265 264 263 263 262 261 260 260 260 260 260 259 258 258 257 257 257
285 284 283 283 285 286 287 287 283 282 283 285 285 284 282 280 279 279 279 280 281 281 280 279 278 278 279 280 279 278 278 278 278 278 279 280 280 280 280 279 279 278 277 276 277 277 276 276 276 276 276 277 276 274 274 273 273 273 273 273 273 270 268 268 268 268 267 266 266 265 264 262 262 262 261 260 260 260 259 258 258 258 258 257 255 255 257
284 285 284 283 283 283 283 282 283 284 284 285 284 283 281 280 280 280 280 280 280 279 280 280 279 277 277 277 278 278 278 278 279 279 280 280 280 280 279 278 277 276 276 275 276 276 276 275 275 275 276 276 275 274 273 273 273 273 273 273 272 270 268 268 268 267 266 265 264 262 262 261 260 260 259 259 259 258 258 258 257 257 257 256 256 257 256
281 281 283 283 283 282 281 281 282 283 283 284 284 283 281 278 279 280 281 281 280 279 279 279 278 278 277 276 277 278 278 279 280 280 280 280 280 279 278 277 276 276 275 275 276 275 275 275 275 276 277 275 274 273 273 273 273 273 273 273 272 269 267 266 267 266 266 263 262 261 260 259 260 259 259 258 258 257 258 257 256 256 256 256 256 255 256
282 280 278 279 280 281 280 281 280 281 281 282 282 281 281 280 278 278 279 280 281 281 280 279 278 278 279 278 277 277 277 277 277 278 278 278 278 278 277 276 276 276 277 277 276 276 276 275 275 276 277 274 273 272 272 272 273 272 272 268 270 268 266 265 265 264 263 261 261 260 259 259 259 259 258 258 257 257 257 256 256 256 256 255 255 255 255
280 279 279 280 280 280 279 280 280 280 280 280 281 282 282 282 282 281 281 281 281 281 280 280 280 280 279 279 278 277 277 276 276 276 276 276 276 276 276 276 276 276 277 278 277 277 276 276 276 277 276 274 273 272 272 272 272 272 271 271 269 267 264 265 264 263 261 261 261 260 260 259 259 259 258 257 258 257 257 256 256 255 255 255 256 255 254
282 282 283 284 284 283 282 282 281 280 281 282 282 281 281 281 281 282 282 282 281 281 281 281 281 281 280 278 278 277 276 275 275 276 276 276 275 276 276 276 276 276 276 277 278 278 277 277 277 277 275 273 272 272 272 272 272 271 271 270 268 265 264 263 262 262 261 260 260 259 259 258 258 258 257 257 257 256 256 255 255 255 255 255 255 254 254
285 285 285 285 285 285 285 284 284 284 282 280 280 280 281 281 281 281 281 281 281 281 282 282 281 280 279 278 277 277 276 276 277 277 277 277 276 276 276 275 275 275 275 276 277 277 277 277 277 276 273 272 272 271 271 271 271 271 270 268 266 264 264 262 261 261 261 260 260 259 259 258 258 257 257 256 256 256 255 255 255 255 255 254 254 253 253
285 284 284 284 285 285 284 284 284 284 284 284 284 284 282 281 280 280 280 280 282 282 281 281 280 279 278 278 277 277 276 277 277 277 278 278 278 277 276 275 275 274 274 275 276 277 277 277 270 268 272 271 271 270 270 271 271 270 269 267 265 263 263 261 261 261 261 260 259 258 258 257 257 256 256 256 256 255 255 255 254 254 255 255 254 253 252
285 284 284 284 285 284 284 284 284 284 284 284 284 284 284 284 282 282 281 281 281 281 281 280 279 278 278 278 278 279 278 278 278 278 279 279 279 277 276 276 275 274 273 273 276 276 275 275 267 265 269 271 270 270 269 265 270 268 266 265 264 262 261 261 261 261 260 259 258 258 257 256 256 256 255 256 255 255 255 255 254 254 254 254 253 252 252
285 284 284 284 284 284 284 284 285 284 284 283 283 283 284 284 284 283 282 281 281 281 280 279 279 279 279 279 278 278 278 279 279 278 278 278 278 276 275 275 275 274 274 275 275 273 274 270 263 266 270 270 269 269 267 263 264 266 265 264 263 262 261 260 260 259 258 258 257 257 256 256 256 255 255 255 255 254 254 254 254 253 253 253 253 252 252
284 284 283 284 284 283 283 284 284 283 283 283 283 283 284 284 283 283 282 281 281 280 279 279 278 278 278 278 278 279 279 279 279 278 278 277 276 275 276 276 277 277 277 275 273 274 272 266 266 269 270 269 268 269 264 261 262 266 265 264 263 262 261 260 259 258 257 257 257 256 256 256 256 255 255 255 255 254 253 253 253 253 253 252 252 252 252
283 283 283 282 282 282 282 282 282 282 283 283 283 283 284 283 282 282 281 281 281 279 279 279 278 278 278 278 278 279 280 279 278 278 277 276 274 274 275 276 276 275 272 266 271 273 267 263 266 269 269 268 268 267 263 262 262 265 264 263 262 261 261 260 259 258 257 257 256 255 256 255 255 255 255 254 254 253 253 252 252 252 252 252 252 252 251
283 283 283 281 281 281 281 281 281 282 282 281 282 283 283 282 281 280 280 281 281 279 279 279 279 279 279 280 280 280 279 278 278 277 276 274 273 272 273 274 277 275 272 271 271 269 264 264 267 268 268 267 267 263 264 260 263 264 263 263 262 261 260 259 258 257 256 256 255 256 256 255 254 254 254 253 253 253 253 252 252 252 252 251 251 251 251
282 282 282 281 280 281 281 281 281 280 280 281 281 281 282 281 281 281 281 281 280 279 279 280 277 280 281 280 279 278 278 278 277 276 275 275 274 274 273 275 276 273 267 266 265 264 264 265 266 265 267 266 264 260 260 261 264 263 263 262 261 260 259 258 258 257 257 257 256 256 256 255 255 254 253 253 253 252 252 252 252 252 252 251 251 251 250
282 282 281 281 281 281 280 280 280 280 280 281 281 281 281 280 280 281 281 281 281 280 279 280 278 274 277 278 278 277 278 277 275 275 274 275 276 277 277 277 272 271 263 267 267 267 265 266 267 268 264 264 263 259 259 262 263 263 262 261 260 260 259 258 258 257 257 257 256 256 255 255 254 254 253 253 252 252 252 251 251 251 251 251 250 250 249
283 282 281 281 281 281 280 280 279 279 279 281 281 280 280 280 280 280 280 280 280 279 279 279 278 278 277 277 277 278 278 277 275 274 274 273 273 273 272 272 270 265 261 266 266 266 265 266 267 264 259 260 258 258 261 263 262 262 261 260 259 259 258 258 257 257 257 256 256 256 255 254 254 254 253 253 253 252 251 251 251 251 251 250 250 249 249
283 283 282 282 281 280 280 280 280 280 280 279 277 278 279 279 279 280 280 279 279 279 278 279 279 278 278 277 278 279 280 280 278 276 273 273 272 274 273 266 268 264 263 263 266 266 265 266 264 259 259 258 257 257 261 262 262 261 261 260 259 259 258 257 256 256 256 256 256 256 255 255 255 254 254 253 251 252 251 250 251 250 250 249 249 248 248
284 284 283 276 280 280 282 282 281 278 277 278 277 276 276 278 279 279 279 279 279 279 280 280 280 280 279 278 278 278 278 278 278 277 277 278 278 277 270 266 268 263 262 261 266 265 265 261 259 258 258 257 257 259 261 261 261 261 260 259 259 258 258 257 256 256 256 256 255 255 255 255 254 254 254 253 252 252 251 249 249 249 249 249 248 248 248
284 283 282 281 281 282 281 277 277 277 276 276 278 280 280 277 277 279 279 279 279 280 281 281 280 280 280 279 279 277 276 276 275 274 275 273 266 264 263 263 262 260 260 263 265 265 264 261 258 257 257 256 256 260 261 261 260 260 259 259 258 258 257 257 256 256 256 256 255 254 253 253 254 253 252 251 251 251 250 249 249 248 248 248 248 247 247
284 283 284 282 282 280 276 275 276 278 278 279 280 282 282 279 278 278 278 278 278 278 279 280 279 279 279 279 279 279 280 278 276 276 274 272 270 267 265 266 265 260 260 260 261 260 258 258 257 257 256 256 258 260 260 260 260 260 259 259 258 258 257 257 256 256 256 255 253 253 253 253 253 252 251 251 251 250 249 249 249 248 247 247 247 247 246
284 283 284 282 279 278 278 278 278 278 279 281 279 281 281 280 278 278 278 278 277 277 277 278 279 279 278 276 277 279 277 278 280 281 275 270 269 268 266 262 258 258 261 263 262 262 258 257 256 256 255 255 259 260 260 260 259 259 259 259 258 258 257 256 256 256 255 254 253 253 253 252 252 251 250 250 250 250 248 248 249 248 247 247 247 246 246
284 283 283 283 282 281 280 280 280 281 282 282 282 282 282 280 279 280 279 279 279 276 278 278 278 278 278 277 276 276 277 275 275 268 267 269 267 268 265 263 261 258 259 263 261 260 255 255 255 255 255 257 259 260 259 259 258 258 258 258 257 257 256 255 253 253 254 253 253 252 252 252 252 250 249 250 249 249 248 248 249 247 246 246 247 246 246
284 283 284 284 284 284 283 283 284 284 284 284 284 283 281 280 281 280 281 279 278 276 276 277 277 277 277 276 275 274 274 273 271 265 267 267 266 263 261 262 260 259 260 261 260 259 258 257 257 256 256 258 260 259 258 258 258 257 256 257 256 256 255 254 253 253 254 253 253 252 252 251 250 250 250 250 249 248 247 247 247 247 246 246 246 246 246
285 286 286 285 285 284 284 284 283 284 284 284 284 283 282 281 281 281 281 271 277 277 277 277 276 276 275 275 273 272 272 271 268 266 264 264 264 264 261 258 260 259 260 260 259 258 259 259 256 255 256 259 260 259 256 255 257 257 257 256 255 255 254 253 253 253 253 252 252 252 251 251 250 249 249 249 248 247 247 247 247 246 246 246 246 246 246
Wind_Speed
1 2 2 2 3 3 4 7 5 6 6 5 6 8 3 5 2 3 3 5 4 5 3 4 10 13 14 15 16 15 14 14 15 16 18 19 18 17 18 19 20 20 20 19 19 18 17 16 16 16 13 12 11 11 11 11 11 11 10 11 10 10 9 9 9 8 8 7 6 6 5 5 5 5 5 5 4 3 3 2 1 1 1 2 2 1 1
3 2 2 1 2 3 5 8 8 6 4 9 10 8 2 8 8 2 1 3 11 10 5 5 4 10 9 9 10 11 15 19 19 19 20 21 22 22 23 23 23 22 21 19 19 18 17 18 18 16 14 14 13 13 13 12 12 11 11 11 11 11 10 10 9 9 8 7 6 6 6 6 6 6 6 5 4 3 3 2 2 1 2 2 2 2 2
3 3 1 3 2 3 6 6 7 6 5 6 7 5 2 3 9 9 3 4 11 3 1 2 2 6 7 10 14 16 16 17 19 20 22 22 23 24 23 21 21 21 21 20 19 19 19 19 19 16 15 14 14 14 13 13 13 12 12 12 11 11 11 10 9 9 8 8 7 8 7 7 7 6 6 4 4 4 3 3 2 2 3 2 1 2 2
3 4 5 4 5 5 7 11 9 7 6 7 7 7 7 7 7 4 3 4 9 1 3 6 5 8 10 13 15 15 15 18 19 21 21 22 23 23 22 22 21 20 21 22 21 22 20 19 18 17 16 15 14 15 14 14 13 12 12 12 12 11 11 10 10 10 9 9 9 8 8 7 7 6 6 5 5 4 4 3 3 2 2 2 1 1 2
2 3 5 6 6 5 7 10 10 12 11 7 2 5 4 10 2 5 4 8 1 2 3 5 5 8 10 10 13 12 12 15 18 21 22 22 22 21 20 20 21 21 22 23 23 21 18 18 18 18 16 15 16 16 15 14 12 13 13 12 11 11 11 10 11 11 10 10 9 8 8 7 7 6 6 6 6 5 4 3 2 2 2 1 1 1 2
1 3 6 3 2 4 4 2 2 5 7 12 14 11 13 14 11 7 5 3 5 4 6 7 8 12 13 16 15 15 15 17 18 18 17 17 18 18 17 18 19 20 18 16 17 19 19 18 17 15 15 16 14 14 13 13 13 12 13 12 12 12 11 11 11 11 10 10 9 9 8 8 8 8 8 7 6 4 3 3 3 2 2 2 2 1 2
1 3 3 2 3 9 1 3 2 3 3 4 10 13 9 5 12 11 9 8 8 10 8 8 5 7 2 3 9 14 14 15 16 21 22 21 20 21 21 21 20 19 20 18 17 17 17 17 16 14 15 14 12 12 13 13 13 13 13 13 12 12 12 12 12 11 11 10 10 9 9 9 9 8 8 6 6 4 4 3 3 2 2 2 1 1 2
0 0 1 0 7 3 3 3 1 2 2 1 3 10 15 14 12 14 14 15 8 4 5 1 4 4 4 4 6 9 11 13 13 14 16 19 19 20 19 21 21 20 20 21 21 21 17 14 14 15 15 14 13 14 14 14 14 14 14 13 13 13 12 12 12 12 12 11 11 10 10 10 9 9 8 7 6 5 3 2 2 2 2 2 2 2 2
2 0 1 8 9 14 4 1 4 5 3 4 4 5 6 5 10 13 15 15 7 5 3 4 3 2 1 4 9 12 14 15 16 15 14 14 17 18 17 18 19 19 18 17 17 13 14 15 15 15 14 14 14 14 14 14 14 14 14 14 14 14 13 13 13 13 12 12 12 11 11 10 10 9 8 7 6 5 4 3 3 3 3 2 2 2 2
1 1 1 3 1 3 5 2 2 2 3 3 3 2 8 2 6 8 14 16 11 7 6 5 5 3 2 8 6 9 16 16 16 14 12 11 12 13 13 12 12 12 13 13 12 14 15 16 16 14 14 15 14 14 14 14 15 14 15 15 14 14 14 14 13 13 13 12 12 12 11 11 10 9 7 6 6 5 4 4 4 4 3 2 2 2 2
2 1 2 3 3 6 2 2 2 4 5 4 2 1 4 1 2 4 10 14 7 8 8 7 7 4 4 9 3 1 9 14 16 16 16 15 13 13 14 14 16 15 14 16 14 14 15 16 16 15 15 16 15 15 15 15 15 16 16 16 16 15 15 14 13 12 12 12 12 12 12 11 9 9 8 7 5 5 4 4 3 3 3 2 2 2 3
2 2 2 4 5 4 2 4 3 5 5 7 3 2 1 4 4 3 5 9 7 7 8 9 8 8 9 7 3 2 2 7 13 15 15 15 15 14 13 12 13 14 13 14 15 17 19 19 16 17 16 16 16 15 15 15 16 18 17 17 16 14 13 13 12 11 11 12 12 12 12 10 8 8 7 7 6 6 5 4 3 3 3 3 3 2 2
1 3 3 3 5 6 4 5 5 5 5 4 1 3 1 1 3 2 3 3 4 8 9 9 8 11 1 3 2 1 1 2 5 8 9 11 12 12 12 12 12 10 13 16 19 21 18 17 16 17 15 16 16 16 15 16 19 18 16 15 14 13 13 12 12 12 11 12 13 12 10 9 8 7 7 7 7 6 5 4 3 3 3 2 2 3 3
3 2 3 4 5 5 5 2 5 4 4 2 4 1 1 1 2 1 3 3 6 9 8 10 9 4 3 2 2 1 2 2 1 6 8 7 7 8 8 9 11 11 12 15 15 15 15 15 16 16 17 17 17 16 16 20 20 14 15 15 13 13 13 13 12 12 12 11 11 10 9 8 8 7 7 6 6 6 4 4 4 3 3 2 3 3 3
2 1 1 3 4 1 6 14 5 1 2 1 2 1 2 3 1 2 3 6 6 8 8 10 9 5 2 2 2 0 2 2 3 4 8 10 11 10 11 12 14 13 13 14 17 17 14 15 14 15 18 19 17 17 19 22 14 15 15 14 13 13 13 13 12 12 12 12 10 8 7 8 8 8 7 6 6 5 5 4 4 4 4 3 3 3 3
3 4 5 6 3 3 9 12 6 9 8 2 4 3 1 2 3 3 3 5 7 9 9 8 10 9 8 6 6 4 4 4 3 4 6 7 8 9 10 12 13 15 13 13 14 15 13 14 14 15 17 16 16 17 23 15 13 14 13 13 13 13 11 12 12 10 10 10 9 7 9 8 8 8 7 7 6 5 5 4 4 4 4 4 3 3 4
6 6 7 3 0 2 9 9 3 2 1 2 4 2 2 1 3 4 2 4 6 10 9 6 6 6 10 12 8 7 8 6 7 7 8 9 10 11 12 13 13 14 14 14 13 13 13 15 14 14 15 18 21 21 18 13 15 15 14 12 12 10 11 10 10 9 8 9 9 8 8 9 9 8 7 7 6 5 5 5 5 4 4 4 4 3 3
5 10 13 8 4 4 8 11 6 5 3 3 3 5 5 6 4 5 4 2 5 6 7 6 7 9 7 8 8 9 8 7 6 4 4 6 7 8 8 9 12 13 12 11 12 14 13 14 14 14 13 17 23 23 13 13 14 13 11 13 14 12 10 9 10 12 12 8 8 8 9 7 7 7 8 8 6 6 6 5 5 5 4 4 4 3 3
2 7 3 7 13 7 11 11 12 9 9 8 5 3 8 8 4 5 6 4 3 5 5 8 8 9 7 8 7 6 6 8 9 8 9 8 9 11 12 14 12 10 10 12 13 13 15 15 13 13 17 15 17 11 13 11 10 11 15 15 15 12 11 10 10 11 11 9 8 8 8 7 6 6 6 6 6 6 6 6 5 5 4 4 4 4 3
6 10 2 4 2 6 5 6 9 12 13 12 11 12 9 7 4 5 7 5 6 5 7 10 10 11 9 8 9 7 8 9 9 8 9 9 9 11 11 10 11 10 13 12 14 14 15 14 13 13 12 13 14 10 7 10 13 14 15 16 13 11 13 10 10 11 10 14 12 8 9 8 8 6 6 6 7 8 8 7 7 6 6 5 5 5 4
9 13 19 19 14 15 16 14 12 11 10 8 8 10 10 8 11 12 11 10 9 8 11 7 8 9 10 10 10 9 8 7 7 8 10 10 11 9 10 11 13 15 14 16 16 17 15 12 12 15 16 15 14 14 12 12 14 16 15 16 14 11 10 9 9 9 10 9 9 9 8 7 6 7 8 8 8 5 5 4 5 6 6 5 5 5 4
7 11 12 7 3 4 7 9 15 16 16 13 13 9 8 10 13 11 11 12 10 10 9 9 9 13 10 8 8 10 10 9 8 8 8 8 9 10 9 9 11 13 14 15 15 16 13 9 13 15 15 14 13 13 12 12 14 17 16 13 11 10 9 10 9 10 8 8 7 7 8 8 7 4 2 5 6 6 5 6 9 9 8 5 5 5 5
12 17 18 7 6 8 13 9 4 7 6 8 11 11 11 11 13 10 10 12 10 12 13 11 11 13 11 11 9 10 10 10 8 8 8 8 8 10 8 9 11 12 12 14 14 16 13 9 13 15 14 14 13 13 13 13 16 16 16 11 9 9 10 9 11 10 9 9 9 8 7 7 7 7 5 5 11 11 7 9 10 12 13 12 12 12 9
18 17 11 5 7 11 11 7 3 5 4 7 11 12 11 14 13 9 9 11 11 11 11 10 13 15 13 11 9 14 14 9 8 10 9 9 10 7 8 10 11 13 13 14 16 16 10 12 14 15 15 14 15 14 14 14 14 14 15 12 10 11 10 9 14 13 9 9 8 8 7 8 7 8 7 6 6 9 11 10 11 12 11 12 11 9 9
17 12 7 5 10 10 10 11 5 4 5 8 8 11 13 13 12 9 11 11 10 11 12 12 12 12 13 11 9 11 12 11 10 11 10 12 11 11 10 13 14 15 14 11 8 8 9 13 13 13 14 14 14 14 14 14 15 15 16 16 15 11 11 12 11 14 10 9 9 9 9 9 8 8 8 8 8 7 6 6 7 8 8 9 8 6 3
15 15 15 3 3 10 8 8 11 13 6 8 8 11 13 11 10 8 12 12 10 10 10 9 9 10 11 11 10 10 11 13 12 8 7 9 9 10 12 14 18 13 6 7 8 9 12 13 13 12 14 14 14 15 15 15 16 17 18 18 17 13 12 13 12 10 10 9 9 9 8 8 8 9 8 8 7 8 7 6 4 4 4 4 5 4 3
12 17 16 14 15 16 16 15 15 16 7 9 15 14 16 10 8 9 9 9 9 9 10 10 10 7 7 9 11 10 11 11 6 6 8 11 13 14 14 12 7 7 9 8 10 14 15 12 12 13 14 14 12 13 14 16 16 16 16 16 13 16 24 18 11 11 11 11 10 9 9 9 8 8 8 6 5 7 8 8 7 7 6 5 4 4 2
14 13 13 15 17 18 17 15 14 15 17 13 13 13 12 7 4 5 7 9 9 9 6 7 9 7 7 8 10 10 9 9 10 11 11 13 13 12 9 7 7 9 10 12 13 12 11 11 12 14 14 11 10 12 14 15 17 17 16 16 14 10 14 16 12 9 9 10 10 10 10 9 8 7 7 7 6 5 4 4 4 5 4 4 3 2 1
17 13 8 13 17 16 15 11 5 8 13 15 11 7 6 7 8 6 10 12 12 8 7 10 9 9 9 9 8 10 10 9 11 14 15 13 11 11 8 8 8 9 10 11 10 9 9 10 12 13 13 11 12 13 15 16 16 16 15 14 9 10 10 11 10 9 8 7 8 9 8 10 7 7 6 5 4 5 4 5 5 4 5 5 4 2 4
18 12 11 12 13 14 15 13 15 17 16 15 13 12 9 8 9 11 12 11 10 12 13 11 7 9 10 11 11 11 11 14 16 14 13 12 10 7 6 5 5 5 6 8 10 9 10 12 13 15 14 11 13 14 16 16 15 16 16 16 15 17 13 11 9 9 10 9 12 13 11 8 6 7 7 6 6 6 5 6 6 6 5 5 5 5 6
1 4 9 11 13 13 15 17 16 16 16 16 16 14 7 9 12 13 14 14 11 12 13 12 12 12 12 13 12 12 12 12 12 11 11 10 8 5 5 7 8 8 9 12 12 12 12 13 14 15 11 11 13 14 16 15 12 13 10 9 8 16 19 21 14 11 10 9 10 9 8 7 8 7 6 7 7 6 6 5 6 5 4 5 5 4 3
11 10 9 9 12 14 14 12 13 14 15 16 14 14 14 14 14 16 16 15 15 15 13 12 13 15 14 12 11 11 12 12 11 12 12 10 7 5 6 8 11 11 11 11 11 11 12 13 14 14 8 11 14 15 15 15 14 11 10 12 11 9 14 20 10 13 13 10 9 9 7 9 9 8 8 7 8 8 7 7 6 6 5 5 5 4 4
11 12 13 16 16 14 15 14 14 16 15 17 17 17 15 12 13 14 15 15 14 12 12 14 13 12 11 10 10 11 11 10 10 12 12 10 8 7 7 8 10 12 11 10 10 11 13 14 14 9 11 12 13 14 15 15 13 10 12 10 12 13 13 13 12 12 11 10 9 9 9 8 9 9 8 7 7 6 7 6 6 6 6 4 4 4 5
18 18 19 18 15 15 15 16 14 15 14 14 15 14 14 13 13 14 15 14 13 14 14 14 13 11 9 9 11 10 9 8 9 12 13 10 10 10 10 10 10 11 12 11 10 8 8 11 8 9 11 12 13 14 15 14 10 8 9 10 13 15 12 12 12 11 10 9 6 10 10 7 9 8 7 7 7 7 6 7 5 5 5 5 4 4 5
17 18 17 18 18 17 17 15 14 12 11 11 12 12 13 13 13 14 14 13 14 16 15 12 10 8 9 10 11 11 10 14 14 12 9 9 10 10 8 9 9 10 11 11 11 11 9 8 9 9 11 13 13 13 13 14 12 9 14 16 17 14 11 8 12 13 12 10 10 10 10 9 8 8 8 8 7 7 6 5 6 6 6 5 5 4 5
17 17 16 16 18 19 18 17 15 16 14 13 14 14 13 13 13 12 14 16 15 13 11 10 9 8 10 12 11 11 13 14 13 11 10 10 8 6 7 10 11 11 11 12 12 10 7 8 11 13 10 9 11 13 15 13 13 12 14 12 12 12 10 11 7 7 6 9 10 8 8 10 10 7 7 6 7 7 7 6 6 6 6 5 5 6 5
17 17 17 16 16 16 17 15 14 14 14 14 14 14 16 15 14 15 13 12 12 13 13 10 9 11 14 13 12 11 12 12 10 10 10 7 5 7 8 9 9 10 8 10 11 8 9 9 12 19 12 10 9 11 14 18 9 12 14 11 11 13 10 10 9 10 9 8 8 8 8 8 7 7 6 7 8 7 7 7 5 5 5 5 5 6 5
17 15 16 16 16 16 16 16 13 12 12 14 15 15 17 16 14 12 12 13 13 12 9 10 12 12 10 8 8 11 13 11 11 10 8 8 7 8 8 8 8 7 8 12 3 8 7 10 16 14 9 8 9 9 14 19 17 15 10 11 12 11 10 10 10 7 9 9 7 9 9 9 9 9 8 7 7 7 6 6 6 7 6 6 6 6 5
15 12 11 13 12 13 14 14 10 10 12 16 17 16 15 15 13 8 10 12 11 7 7 9 8 8 10 10 12 12 13 11 9 8 8 8 7 10 11 12 11 12 11 3 6 6 9 11 11 9 9 10 13 11 14 18 19 10 9 9 11 10 11 10 11 8 8 8 10 9 8 8 8 9 8 8 7 7 5 7 7 5 6 6 6 6 6
14 13 14 11 11 13 12 13 12 11 11 12 13 16 15 10 9 9 10 11 10 8 9 8 9 10 12 13 13 14 11 7 8 9 10 8 8 9 8 10 12 9 6 8 6 5 10 15 12 8 8 9 10 8 11 17 17 11 10 10 10 9 10 8 9 10 9 9 11 10 7 8 8 8 7 7 7 7 6 7 7 6 6 5 5 5 5
13 14 11 9 11 10 11 12 13 12 10 10 12 14 11 8 7 7 11 14 9 7 11 11 12 13 14 14 13 10 4 6 9 11 9 7 8 9 7 10 8 8 10 8 6 7 12 12 10 8 7 9 7 11 10 17 14 9 10 9 10 10 10 11 11 11 10 11 9 11 11 10 9 9 6 8 7 7 7 7 7 7 6 6 6 5 5
14 12 10 8 10 11 12 12 9 7 9 11 13 13 13 9 10 13 13 10 7 9 10 11 14 14 11 7 5 5 7 8 8 9 11 13 12 9 9 11 6 6 12 11 10 10 9 9 9 9 9 8 8 16 17 15 9 9 9 10 10 9 10 10 10 9 7 8 9 8 7 8 9 8 8 7 8 7 8 7 6 7 6 6 6 6 6
13 12 11 11 11 11 11 10 10 13 12 11 12 11 9 7 10 11 10 10 10 9 10 10 11 11 9 7 6 8 9 6 8 9 9 11 12 10 11 3 3 8 14 9 10 6 7 7 7 7 13 14 10 18 19 10 8 10 8 9 7 10 10 10 10 9 10 10 9 8 9 9 9 9 10 9 9 8 8 8 8 7 7 7 6 6 5
12 10 10 11 12 11 8 8 10 9 10 13 7 7 9 10 11 13 12 11 10 10 11 11 10 10 11 9 8 7 7 8 10 8 7 6 6 9 8 4 2 8 15 7 7 6 6 6 6 12 17 17 17 21 11 8 9 9 9 9 10 9 9 10 9 10 10 8 10 11 11 8 9 9 9 9 9 8 7 7 7 7 7 6 6 5 5
11 11 12 13 12 6 7 9 11 14 11 5 4 7 9 11 12 13 13 11 12 12 11 11 12 12 11 11 12 13 10 7 7 7 6 7 8 10 9 10 8 7 9 12 7 7 6 7 12 16 16 18 20 21 10 9 10 10 10 10 10 10 10 11 11 10 9 10 9 9 6 10 10 9 9 8 7 9 9 9 8 7 7 7 6 6 6
11 12 11 8 8 11 13 11 8 5 4 5 6 7 10 11 12 11 11 13 13 13 14 13 12 13 13 13 11 10 5 4 7 9 10 9 11 4 6 11 7 8 13 14 7 8 5 12 16 16 18 19 21 16 7 9 8 10 9 9 9 8 10 9 10 9 10 10 10 8 9 8 8 8 8 8 9 8 8 9 5 6 7 6 6 6 5
12 10 8 12 13 13 8 4 5 5 5 5 8 10 11 11 11 9 10 13 13 12 10 10 11 13 11 12 10 8 8 8 6 7 8 5 1 2 6 11 10 13 13 11 7 8 7 12 14 18 19 20 21 9 9 10 10 9 9 9 9 9 8 9 10 10 9 9 9 11 11 8 7 8 6 9 9 8 7 9 7 7 6 5 4 5 5
12 13 13 14 15 10 6 7 7 8 10 12 12 11 8 4 9 9 9 8 11 12 10 8 9 10 11 11 11 11 9 9 8 10 9 9 5 4 4 5 7 11 14 11 11 8 14 16 17 20 20 21 14 7 9 9 10 9 9 11 10 9 9 9 9 9 8 9 10 8 8 8 8 8 8 9 8 8 8 8 7 7 6 7 7 7 7
14 15 15 10 4 8 9 8 9 7 9 11 10 9 9 5 7 8 9 10 11 10 10 11 13 10 9 9 11 8 7 8 10 8 3 8 8 5 5 7 10 13 9 7 7 5 12 16 18 19 21 19 10 9 9 9 10 12 10 9 8 10 10 9 10 9 10 11 10 9 9 9 10 9 9 8 6 8 6 7 8 7 7 7 6 5 6
12 8 6 7 8 8 9 8 7 9 11 7 9 9 6 4 4 8 8 8 8 6 5 5 6 8 10 9 10 9 8 9 7 2 4 6 7 7 7 7 8 11 10 8 8 6 10 17 18 18 16 9 8 8 7 9 8 9 9 11 11 6 10 12 12 15 13 10 10 9 9 9 9 11 7 7 8 8 8 7 7 9 15 9 5 7 6
9 9 9 9 9 10 11 12 12 11 9 9 9 7 6 8 10 8 7 7 6 6 7 7 6 6 7 9 8 9 8 6 5 5 4 5 7 8 8 8 8 8 8 8 6 6 7 8 8 12 12 10 11 13 9 9 8 8 11 9 13 9 10 10 8 11 9 10 10 10 10 8 7 9 9 8 10 9 7 7 7 8 9 7 7 7 6
11 8 7 7 7 7 7 9 10 8 8 7 7 7 8 9 8 7 4 8 10 10 9 7 9 10 10 9 10 9 6 7 4 4 4 4 6 6 5 8 7 8 8 7 5 6 7 8 11 13 13 13 8 10 13 15 11 9 10 8 9 9 11 9 9 10 11 11 10 9 10 8 9 10 8 7 9 9 9 8 8 7 7 7 6 6 5
Wind_Direction
29 258 306 306 295 262 298 290 273 211 199 186 194 234 222 196 249 277 123 180 217 267 226 194 191 187 188 186 184 182 174 166 166 168 173 179 184 183 185 190 191 191 191 190 189 190 191 185 185 185 181 179 176 174 172 172 174 178 175 175 178 177 177 180 177 173 168 164 164 160 164 169 173 182 181 175 166 160 148 138 136 236 271 268 273 278 301
245 221 230 187 281 294 283 270 265 276 219 218 226 245 225 216 243 328 196 220 248 262 255 198 202 180 179 173 169 168 172 178 176 179 182 185 187 187 190 192 192 192 192 189 189 188 188 189 188 185 182 181 178 176 177 177 178 178 174 180 180 181 184 183 177 173 170 167 166 166 174 183 190 188 184 174 164 152 145 153 187 225 257 258 270 301 340
274 209 210 202 232 222 277 258 240 238 242 269 263 273 274 328 288 260 230 295 287 273 316 141 82 144 141 153 173 182 182 178 180 184 190 192 194 195 194 193 192 191 191 190 189 190 191 190 188 185 184 181 179 181 179 178 179 177 178 180 183 185 186 184 177 173 172 171 172 179 185 191 192 188 181 173 164 159 166 181 199 214 235 255 282 324 351
292 28 351 342 337 304 273 286 263 221 197 248 217 216 202 192 221 115 144 260 252 107 80 84 127 152 169 180 183 182 188 187 186 191 195 197 198 197 196 195 192 191 191 191 191 192 191 189 186 185 184 180 178 184 181 179 178 175 179 182 184 186 187 182 178 177 179 178 180 183 188 192 192 189 181 176 173 172 180 186 200 213 225 253 288 307 334
267 357 355 338 324 300 289 259 248 218 200 219 279 249 244 227 162 161 196 238 65 132 140 139 151 178 186 194 193 191 195 197 197 199 199 200 201 200 196 193 193 194 193 194 193 190 187 187 188 188 179 175 183 183 180 178 171 175 180 183 184 185 187 183 181 184 183 181 182 183 190 193 193 191 187 181 177 177 182 178 203 216 222 256 269 304 317
283 324 317 300 300 268 253 84 157 314 235 202 208 224 211 212 185 220 219 246 137 157 179 191 175 181 201 200 200 192 185 186 197 207 210 210 207 205 202 200 198 197 196 195 195 192 190 189 187 179 178 182 184 180 175 169 173 175 179 184 185 188 186 186 185 185 184 182 182 186 189 195 196 196 191 185 173 169 168 182 206 216 221 231 243 271 302
269 330 307 303 253 245 164 140 142 125 346 19 244 279 295 232 219 250 273 246 218 208 196 206 198 190 32 213 191 194 198 193 192 195 200 202 201 200 199 200 201 198 196 194 190 189 191 188 180 174 183 184 173 171 170 171 177 178 184 183 187 189 188 187 186 185 185 183 184 189 192 196 198 199 192 175 166 168 175 191 208 218 224 224 228 256 285
137 162 88 92 242 233 272 297 341 341 88 105 5 285 257 241 222 226 245 250 225 181 218 300 28 8 336 323 253 227 213 207 204 203 207 205 201 202 202 199 199 195 194 193 191 193 187 176 179 182 183 176 172 176 174 178 179 183 183 186 188 189 190 188 188 188 184 183 187 190 193 195 199 198 188 175 165 161 169 195 210 224 235 227 233 243 276
211 179 182 246 323 319 354 358 171 185 208 169 190 259 267 186 215 199 232 249 236 151 125 133 101 54 354 276 256 218 219 215 217 215 214 206 206 208 207 203 204 201 198 195 194 182 178 183 180 186 180 175 177 174 177 182 180 183 185 189 191 190 192 189 190 187 184 184 188 192 192 194 197 196 182 167 162 156 175 200 213 224 226 227 226 244 263
164 206 273 308 307 267 277 189 77 210 23 76 52 74 287 169 256 220 216 230 218 145 129 131 135 148 284 267 252 179 197 208 215 219 224 218 214 209 207 202 201 193 192 191 186 183 182 184 187 181 176 173 175 175 179 181 182 186 188 193 192 192 192 191 188 184 184 184 188 191 193 196 196 190 177 161 160 161 183 199 213 214 221 225 226 233 254
122 128 185 218 202 244 172 166 159 179 160 132 189 178 286 305 257 267 224 235 218 155 150 146 148 173 224 252 92 194 185 193 200 209 215 216 216 211 205 196 198 193 189 187 185 181 187 191 188 178 175 174 176 183 182 184 187 189 192 192 193 193 192 189 185 181 181 184 189 191 193 196 191 181 173 164 155 162 182 200 211 205 218 232 231 234 232
230 138 168 237 205 249 119 172 173 168 151 147 167 319 305 10 360 310 213 223 192 149 142 149 180 187 227 247 63 46 221 203 196 200 204 203 206 209 206 201 196 193 180 170 186 190 195 196 179 175 174 178 187 187 186 185 190 195 192 193 195 191 187 183 179 178 179 184 190 191 192 190 184 178 160 152 159 166 180 193 198 204 204 227 244 247 229
194 210 269 320 276 251 214 178 140 139 177 219 200 211 81 318 317 281 228 211 146 139 149 173 194 226 229 75 82 30 233 151 212 215 216 209 202 201 195 197 181 177 180 186 194 195 196 186 172 176 174 182 192 191 187 190 200 196 187 188 189 183 182 178 178 179 178 185 188 189 188 182 175 164 159 161 161 170 179 186 184 201 206 235 246 257 251
194 195 229 267 282 252 126 36 125 161 156 173 202 109 107 257 316 120 219 181 165 164 174 189 226 228 93 127 30 98 163 195 177 209 208 206 200 206 197 176 174 190 185 193 197 197 191 179 173 176 176 187 194 191 192 204 201 181 181 187 182 178 179 180 178 178 180 184 184 182 178 166 164 163 159 156 162 164 177 175 182 192 207 229 243 257 256
56 58 286 347 297 31 115 123 109 185 211 253 85 252 196 202 281 196 187 193 183 180 196 213 228 241 227 221 246 187 188 208 212 193 193 198 198 194 187 189 192 187 190 193 197 194 183 177 174 179 180 191 193 193 203 208 183 176 184 183 178 179 179 177 177 178 181 176 172 170 165 167 161 158 151 151 152 157 164 169 177 190 200 220 236 253 255
153 177 177 205 237 74 179 165 168 199 219 64 176 154 230 177 217 211 185 208 198 200 204 199 222 231 246 259 229 236 230 217 203 206 209 207 205 199 199 194 186 187 196 194 196 194 185 179 178 180 181 191 194 199 211 193 172 178 180 178 173 175 171 177 175 174 170 167 171 164 162 163 160 149 155 154 157 167 170 176 185 190 204 196 223 234 250
181 199 216 224 1 211 214 252 3 319 172 163 182 202 224 210 223 193 243 214 187 207 216 228 217 226 224 231 220 212 229 196 203 199 203 201 201 199 195 199 190 192 199 194 191 190 187 180 182 182 188 194 201 209 209 169 176 176 175 170 168 170 172 175 172 168 160 168 169 163 162 162 161 158 150 155 164 171 167 190 195 195 203 191 208 227 240
275 270 237 254 212 182 247 263 265 279 291 269 206 227 250 228 204 180 211 198 196 200 209 218 235 225 226 217 224 225 231 225 216 209 208 215 211 208 197 192 187 196 199 194 189 193 191 185 186 187 189 195 205 214 189 179 180 172 167 175 183 185 177 175 170 156 157 163 162 158 159 170 164 164 159 165 169 166 176 191 191 194 195 190 201 213 228
19 271 105 203 239 202 209 230 254 254 238 238 196 234 230 248 184 208 239 230 203 196 186 205 227 233 230 234 235 224 230 225 223 205 210 207 201 198 199 204 186 189 193 197 198 191 195 191 188 188 198 201 209 194 182 172 161 165 180 184 188 185 177 176 163 157 164 166 166 164 167 168 166 160 161 166 165 170 180 184 185 190 187 189 197 198 215
214 246 176 224 186 239 236 236 241 245 250 248 227 227 241 244 230 216 229 202 236 188 210 211 219 237 228 220 235 229 222 222 218 209 210 209 204 212 207 191 181 188 196 198 200 194 202 195 190 189 192 201 204 194 176 176 179 178 183 188 183 177 176 166 163 168 172 173 167 164 174 167 164 166 171 175 179 187 185 185 180 189 186 192 193 194 203
256 292 276 264 275 281 260 233 225 234 235 239 246 230 235 235 240 235 227 208 221 188 224 194 216 238 240 220 226 230 232 223 219 214 213 211 212 202 193 191 187 196 197 203 204 201 206 191 184 195 204 205 202 201 196 181 175 179 186 188 190 177 162 159 165 168 170 158 175 166 163 173 178 173 171 178 186 190 189 171 184 179 183 189 187 193 188
246 230 251 111 182 243 257 218 227 224 225 226 245 242 225 223 227 232 228 234 221 231 232 218 212 230 236 217 222 241 241 235 225 218 221 218 214 215 207 193 200 209 208 205 203 206 210 177 185 199 205 202 199 196 187 180 176 183 185 182 181 173 165 170 164 165 167 168 171 166 164 169 161 156 176 191 184 177 180 188 199 209 193 187 181 178 199
237 239 246 211 247 292 273 280 201 201 198 194 220 225 231 236 233 225 222 242 229 220 230 215 220 231 233 230 199 233 244 237 228 228 224 218 218 222 195 191 207 210 209 207 208 211 207 183 194 201 204 200 196 193 187 181 182 185 179 174 169 170 172 174 173 169 161 168 175 176 170 158 161 157 160 198 212 211 194 179 195 210 212 208 202 201 194
247 257 269 130 205 242 269 277 194 225 192 186 212 222 225 230 229 207 212 222 226 233 216 211 212 228 236 234 202 228 244 242 226 224 220 219 221 214 195 209 212 212 216 213 211 212 194 193 198 200 200 200 196 191 186 183 183 182 181 174 173 178 177 165 174 177 172 168 159 162 163 165 164 164 167 160 187 204 204 196 198 204 211 216 220 226 225
239 245 272 177 241 258 264 284 244 229 200 199 226 239 235 232 231 204 216 231 222 228 234 213 210 210 226 235 213 227 238 242 231 226 223 223 225 213 210 210 214 214 213 206 205 206 202 204 202 199 199 203 195 188 183 180 179 182 184 188 188 170 168 173 169 179 175 165 171 167 163 162 171 172 171 171 166 171 187 200 210 215 213 205 204 191 176
252 261 259 224 203 254 262 279 274 253 210 199 231 249 244 235 230 194 219 228 236 220 230 241 227 197 202 223 227 226 239 246 244 224 223 229 229 224 223 218 220 219 196 193 202 210 216 211 205 201 205 205 193 186 180 180 182 186 187 191 190 176 164 169 167 172 175 171 167 174 172 169 167 169 177 172 171 158 159 166 182 202 215 186 134 122 116
232 240 246 257 257 258 249 242 252 267 242 198 226 241 250 252 224 227 235 242 250 248 227 231 237 220 184 218 234 231 226 242 247 237 229 230 229 228 227 229 222 202 203 202 211 215 213 205 203 205 212 208 191 181 180 181 183 187 190 190 191 187 184 176 167 167 173 170 170 166 163 168 166 170 173 173 164 165 172 175 178 177 174 169 158 148 142
229 230 206 219 235 243 252 247 251 257 263 250 222 233 248 250 226 239 248 255 252 241 229 231 233 224 217 216 217 236 236 239 236 237 232 232 233 236 232 215 199 197 203 210 218 214 206 203 205 210 216 203 182 179 180 181 185 189 190 189 187 159 170 181 181 172 168 169 169 166 165 168 164 164 155 157 168 175 166 158 158 150 154 163 155 132 191
240 233 212 226 239 248 262 278 297 254 248 254 251 238 252 250 239 229 243 240 246 248 244 241 230 223 224 231 210 227 226 232 233 239 238 237 234 230 222 205 203 202 208 215 220 212 202 205 209 213 219 196 180 177 178 182 188 191 189 190 172 158 169 175 175 169 164 154 155 163 145 131 144 153 155 160 150 149 154 165 165 165 158 147 146 180 184
251 245 236 235 240 246 252 252 252 254 253 252 252 242 218 233 249 245 244 248 241 240 238 240 228 222 218 230 224 221 219 226 230 234 237 240 239 226 205 186 170 197 211 220 219 208 202 206 207 213 216 188 177 176 179 184 192 194 193 190 188 177 160 163 153 158 145 151 157 158 148 144 149 142 152 152 158 160 164 169 166 163 165 167 175 177 178
220 166 218 232 235 236 234 239 240 244 250 257 251 252 230 213 237 248 251 247 242 241 241 233 230 231 223 223 225 223 226 234 240 243 244 242 238 218 180 168 183 205 205 215 212 205 206 209 211 216 207 178 176 177 179 187 188 190 188 184 175 184 179 174 173 165 156 137 142 151 145 151 153 155 152 152 156 164 170 166 169 176 172 165 179 186 183
269 254 237 232 234 238 238 238 240 240 240 245 253 251 237 225 228 235 242 246 242 236 239 235 233 233 232 227 224 228 231 234 240 247 249 247 239 212 197 198 213 224 225 217 211 204 208 211 217 217 180 175 179 180 182 187 188 185 177 181 170 156 173 171 163 166 152 155 147 150 151 150 159 157 151 161 168 169 167 167 174 172 172 173 183 187 165
248 260 258 250 247 241 243 238 232 239 234 240 238 241 241 231 231 235 239 242 248 245 237 239 239 236 232 226 222 225 230 232 240 246 248 245 233 219 206 211 215 222 226 222 213 207 206 211 217 194 182 180 179 181 186 188 188 179 174 165 161 161 165 169 158 134 149 151 158 158 156 160 153 160 169 164 163 158 163 167 165 164 174 178 180 163 157
237 237 244 245 240 245 241 242 228 235 239 237 239 241 243 238 232 234 239 242 242 246 244 240 238 235 223 218 221 223 219 219 233 239 237 234 230 226 218 214 220 222 228 228 222 216 214 215 205 189 180 173 179 183 187 188 181 171 163 157 155 146 159 159 156 158 154 166 157 160 156 145 158 165 159 163 161 164 164 166 164 163 167 174 172 157 169
238 245 245 251 253 250 249 250 253 243 232 237 240 237 238 238 233 233 233 235 237 238 240 241 238 233 221 222 220 218 210 220 232 236 232 217 226 221 210 211 221 227 233 234 227 228 214 202 195 181 170 178 179 182 182 186 181 168 172 164 164 161 158 146 160 163 164 156 150 153 157 165 169 166 159 158 159 162 160 166 160 164 167 170 168 155 173
245 246 246 247 249 248 249 247 244 246 245 244 246 246 239 231 231 232 230 230 234 239 241 235 225 220 224 223 224 219 222 227 233 233 234 227 218 195 193 209 213 222 229 245 234 224 193 194 182 168 168 170 177 181 182 180 178 169 171 166 166 162 166 165 155 137 135 141 156 161 162 161 153 152 153 152 152 159 163 163 167 170 173 169 158 161 167
238 237 243 244 247 246 247 245 240 237 237 239 242 247 251 246 233 232 230 235 231 229 227 223 218 222 228 224 221 226 227 226 224 224 228 221 198 191 201 212 211 219 216 243 235 188 192 189 173 168 169 178 179 180 181 173 165 150 144 153 148 152 148 159 161 161 159 159 146 146 144 145 147 151 159 160 164 166 163 165 166 169 173 165 157 163 169
241 230 234 237 243 245 245 245 241 236 235 241 240 238 240 245 243 232 226 227 231 227 219 213 220 227 232 233 228 230 233 225 221 219 216 209 194 195 209 209 212 198 211 230 168 153 184 170 168 175 180 171 170 167 171 174 166 161 154 161 157 152 155 155 156 152 153 158 153 149 153 156 153 158 165 169 165 162 167 164 166 171 170 166 169 172 174
250 242 232 237 240 245 248 252 242 231 224 229 239 241 239 237 243 234 234 234 233 213 203 218 218 223 229 226 232 234 233 224 207 201 208 206 190 193 217 215 217 208 220 195 145 177 160 166 175 179 177 181 175 177 169 171 165 161 156 152 156 160 159 160 163 158 156 147 152 153 154 157 158 158 163 169 164 161 165 171 167 167 169 169 170 176 178
240 242 234 225 230 238 242 248 245 236 230 225 233 244 245 234 235 232 239 246 235 185 199 202 202 217 226 227 230 237 233 200 189 195 203 196 191 213 241 252 238 224 201 166 171 164 168 167 175 183 171 172 173 154 163 168 167 166 154 157 158 159 163 156 148 149 151 150 159 160 157 160 159 160 156 154 157 165 163 170 176 176 175 170 175 174 171
233 239 239 212 227 230 234 237 242 236 228 229 230 239 242 229 216 217 230 236 231 181 202 199 206 221 227 226 229 238 215 186 192 198 187 169 191 209 215 244 221 183 187 188 178 164 168 175 182 169 171 159 154 162 156 166 166 161 161 158 159 159 156 161 164 160 156 162 158 166 167 160 155 163 158 160 165 165 168 172 176 178 177 176 178 176 179
233 233 236 226 227 228 230 231 238 245 234 225 229 232 233 215 204 220 230 230 222 204 208 210 211 219 230 227 225 215 218 209 192 193 179 192 196 196 198 247 184 163 177 174 167 157 170 176 187 183 163 157 157 168 164 168 168 163 162 164 162 159 157 161 160 163 158 154 156 153 150 155 159 158 158 163 167 173 173 173 174 176 178 176 177 178 176
230 228 225 226 232 230 229 225 222 229 240 237 225 228 224 212 214 229 233 226 217 212 212 218 218 224 229 214 201 215 226 202 195 200 207 224 219 212 211 243 126 168 165 174 166 159 170 181 175 180 172 171 167 164 165 168 164 162 161 159 150 162 165 162 163 155 159 159 162 157 157 160 162 161 165 172 175 173 171 175 178 178 173 178 178 177 177
231 226 225 224 231 230 218 220 228 229 234 248 226 205 207 210 211 218 222 221 217 212 210 215 210 211 212 206 203 215 213 188 194 195 192 232 248 253 239 229 157 159 172 168 172 171 173 174 181 167 168 170 161 163 165 165 158 162 158 156 160 163 156 163 164 164 168 163 161 164 172 166 160 166 166 167 167 171 175 178 179 174 172 173 178 176 174
231 227 225 224 227 218 215 220 219 221 225 227 183 195 203 213 218 217 217 215 214 215 210 212 209 207 203 197 206 216 219 195 190 159 170 216 237 250 202 187 176 164 184 177 174 174 173 175 173 165 168 165 162 166 167 166 166 165 159 161 162 165 164 166 167 170 167 163 160 157 155 167 173 166 170 171 169 167 176 178 180 169 164 176 177 178 179
243 238 229 221 220 222 224 223 225 212 213 205 221 229 220 215 217 216 214 213 216 215 211 209 210 209 204 204 213 218 223 204 195 200 207 205 199 229 143 170 181 180 177 178 177 179 177 173 167 166 167 164 164 169 169 166 166 165 163 164 164 161 165 167 166 169 165 164 161 158 163 165 163 169 171 169 173 174 175 169 155 167 181 179 181 177 173
237 245 228 216 227 233 226 192 177 185 194 200 226 245 234 215 213 214 217 215 221 224 217 210 213 218 209 201 193 179 195 205 233 213 217 214 119 95 166 170 166 170 171 180 177 175 168 166 167 168 166 166 167 169 165 167 169 167 165 161 162 167 164 162 167 167 165 165 166 170 170 164 159 161 159 170 173 177 164 170 175 175 176 178 169 173 174
230 235 243 231 231 231 166 168 169 192 201 212 221 233 244 199 199 217 219 214 218 223 222 219 219 218 208 205 209 211 202 181 211 239 194 198 180 137 154 178 175 175 177 184 182 176 166 166 167 167 167 165 171 166 167 168 168 166 165 170 170 162 162 164 166 164 158 152 157 154 157 167 168 169 169 174 174 173 171 174 171 167 173 177 180 180 176
228 231 238 245 220 182 188 195 198 211 222 227 225 241 241 199 186 201 213 216 215 217 220 225 224 223 211 207 206 207 209 207 200 232 161 156 174 171 173 159 160 166 173 175 164 158 169 167 167 166 165 166 173 172 170 172 173 176 177 172 165 170 172 166 167 158 160 163 165 162 163 162 167 167 173 176 172 171 169 175 175 169 171 176 176 177 181
237 237 240 232 221 209 198 200 208 218 226 218 219 229 214 164 193 224 214 203 204 205 207 214 211 208 204 190 199 195 195 203 219 89 127 164 158 165 170 161 154 177 175 169 168 158 165 166 165 166 166 173 170 166 163 165 166 175 173 175 177 167 173 171 170 169 168 165 162 163 166 169 169 175 168 167 171 167 173 176 173 184 184 183 177 178 179
225 220 225 224 222 222 209 206 215 216 217 216 220 210 184 193 219 224 216 179 156 180 215 216 222 210 210 200 195 193 184 179 174 156 133 158 172 163 165 169 166 170 175 170 155 152 154 163 165 168 171 172 174 180 174 172 165 165 175 174 178 164 153 167 161 163 169 170 168 167 167 164 154 161 173 178 169 169 171 170 170 172 179 187 184 184 181
230 227 227 225 224 224 219 219 225 226 230 223 218 199 200 209 216 223 212 185 191 201 205 194 229 227 197 196 195 190 175 173 150 150 156 156 153 158 159 154 151 168 171 166 141 143 159 168 170 174 175 180 176 175 179 177 176 172 175 174 173 166 169 168 170 167 162 168 169 168 174 167 163 173 174 167 171 172 172 177 178 180 182 185 183 177 174